Miscellaneous Local Product
Issued by NWS Hastings, NE

Home | Current Version | Previous Version | Graphics & Text | Print | Product List | Glossary On
Versions: 1 2 3 4 5 6 7 8 9 10 11 12 13 14 15 16 17 18 19 20 21 22 23 24 25 26 27 28 29 30 31 32 33 34 35 36 37 38 39 40 41 42 43 44 45 46 47 48 49 50
000
AXUS43 KGID 050202
MISGRI

GID CWA HOURLY WEATHER ROUNDUP
NATIONAL WEATHER SERVICE HASTINGS NE
800 PM CST SUN DEC 04 2016

NOTE: "FAIR" INDICATES FEW OR NO CLOUDS BELOW 12,000 FEET WITH NO
SIGNIFICANT WEATHER AND/OR OBSTRUCTIONS TO VISIBILITY.

...SOUTH CENTRAL NEBRASKA...

CITY           SKY/WX    TMP DP  RH WIND       PRES   REMARKS
GRAND ISLAND   CLEAR     37  32  82 S12       29.86F WCI  29
HASTINGS       CLEAR     36  31  82 S8        29.89S WCI  30
KEARNEY        CLEAR     32  19  59 S8        29.86S WCI  25
ORD            CLEAR     28  18  66 S10       29.80F WCI  19
YORK           CLEAR     34  32  93 SW9       29.89S WCI  26
AURORA         CLEAR     36  32  88 S12       29.88S WCI  27
LEXINGTON      CLEAR     32  20  60 S9        29.83F WCI  24
HOLDREGE       CLEAR     37  20  50 S10       29.86F WCI  30
HEBRON         CLEAR     35  32  88 S8        29.92F WCI  28

...NEBRASKA PANHANDLE...

CITY           SKY/WX    TMP DP  RH WIND       PRES   REMARKS
CHADRON        CLOUDY    38  17  42 S9        29.65F WCI  31
ALLIANCE       CLOUDY    26  14  60 S10       29.69F WCI  16
SCOTTSBLUFF    CLOUDY    39  19  44 W7        29.69F WCI  34
SIDNEY         CLOUDY    34  13  41 SW10      29.74F WCI  26

...WESTERN AND NORTH CENTRAL NEBRASKA...

CITY           SKY/WX    TMP DP  RH WIND       PRES   REMARKS
VALENTINE      CLOUDY    37  15  40 S6        29.72F WCI  32
AINSWORTH      CLEAR     29  18  63 S9        29.74F WCI  20
ONEILL         CLEAR     34  22  62 S5        29.79F WCI  30
BROKEN BOW     CLEAR     26  18  71 CALM      29.80F
IMPERIAL       CLEAR     38  12  34 S15       29.78F WCI  29
NORTH PLATTE   CLEAR     37  15  40 S9        29.78F WCI  30
MCCOOK         CLEAR     35  15  44 S8        29.83F WCI  29

...EASTERN NEBRASKA...

CITY           SKY/WX    TMP DP  RH WIND       PRES   REMARKS
NORFOLK        CLEAR     36  27  69 S14       29.83S WCI  27
SO SIOUX CITY  CLEAR     34  31  88 SE7       29.85S WCI  28
TEKAMAH        CLEAR     33  30  88 S10       29.89S WCI  25
COLUMBUS       CLEAR     39  30  70 S13       29.87S WCI  32
ALBION         PTCLDY    34  25  68 SE3       29.83S
OMAHA EPPLEY   CLEAR     32  27  81 SE7       29.91F WCI  26
OFFUTT AFB     CLEAR     31  31 100 SE5       29.91F WCI  26
MILLARD        CLEAR     32  31  94 CALM      29.91F
LINCOLN        CLEAR     34  30  85 CALM      29.92F
NEBRASKA CITY  CLEAR     35  33  94 SW10      29.92F WCI  27
BEATRICE       CLEAR     34  32  91 S8        29.93S WCI  28
FALLS CITY     CLEAR     36  33  89 S6        29.95F WCI  31

...NORTHERN KANSAS...

CITY           SKY/WX    TMP DP  RH WIND       PRES   REMARKS
GOODLAND       CLEAR     36  12  37 S16       29.84F WCI  26
HILL CITY      CLEAR     35  19  52 SW8       29.91F WCI  29
NORTON         CLEAR     36  16  44 S8        29.87F WCI  29
PHILLIPSBURG   CLEAR     36  21  55 S6        29.91S WCI  31
SMITH CENTER   CLEAR     30  27  86 S7        29.92S WCI  23
BELOIT         CLEAR     34  28  80 CALM      29.93S
HAYS           CLEAR     33  25  72 S8        29.95S WCI  26
RUSSELL        CLEAR     36  27  69 S12       29.93S WCI  28
CONCORDIA      CLEAR     38  32  79 S12       29.94F WCI  30
SALINA         CLEAR     36  31  82 S6        29.97S WCI  31
TOPEKA         CLEAR     34  30  85 CALM      30.00S



USA.gov is the U.S. government's official web portal to all federal, state and local government web resources and services.